Theta_e
344 341 343 346 348 345 343 340 338 337 336 338 343 342 341 336 334 339 342 350 350 349 350 348 348 350 354 353 352 353 352 352 352 352 352 353 353 353 353 352 351 351 351
346 348 344 345 346 343 344 346 346 344 342 341 340 341 340 338 334 333 338 337 342 348 342 342 347 348 353 354 352 352 350 349 351 350 349 350 351 352 353 353 352 351 350
352 350 347 346 345 345 343 340 336 337 335 334 333 335 339 339 339 336 334 339 335 346 340 339 339 351 352 354 353 352 350 349 349 348 347 347 347 347 349 351 351 350 349
349 346 346 342 336 335 332 332 329 329 329 326 326 327 328 333 337 333 337 339 335 338 339 346 343 347 351 352 353 352 350 347 346 345 346 346 347 347 348 350 350 350 349
350 348 344 335 334 332 330 329 326 326 322 321 322 322 322 322 325 335 335 335 337 339 342 343 338 339 346 352 352 352 349 348 345 345 345 345 346 346 346 347 347 348 348
351 344 339 336 334 329 328 326 326 324 320 319 322 319 318 319 325 326 327 323 335 341 341 342 341 342 346 349 350 349 349 346 345 345 345 343 344 344 344 344 343 344 345
346 343 337 335 332 329 328 326 324 324 322 319 318 317 318 319 322 324 328 329 333 338 334 331 330 331 332 338 344 345 344 346 345 344 342 339 339 339 340 340 340 341 342
340 338 336 332 329 328 325 324 323 321 323 318 319 318 314 318 323 328 334 334 327 331 328 328 327 325 325 325 330 335 342 334 335 337 335 334 333 334 335 335 335 335 335
343 338 334 332 331 327 324 324 324 324 322 324 323 318 313 312 318 322 321 323 321 322 319 323 319 321 323 322 323 326 336 334 332 329 328 329 328 328 329 331 332 332 333
339 339 335 332 332 329 325 322 324 327 326 321 324 323 322 326 315 312 317 318 318 316 316 316 316 319 319 319 323 330 331 330 324 322 323 323 324 324 325 326 327 328 328
335 336 332 329 327 328 329 328 327 325 324 319 316 314 313 311 311 310 307 309 313 311 314 315 315 316 317 319 319 328 327 325 324 325 325 323 324 323 323 324 324 323 324
329 330 332 330 329 329 329 326 324 321 318 317 315 313 311 309 308 307 305 308 308 311 311 313 313 315 316 317 324 328 326 325 324 323 324 324 323 323 323 323 324 324 325
324 325 327 327 325 324 322 323 319 318 317 314 313 314 313 312 312 310 308 309 306 311 310 312 313 313 316 316 318 325 324 322 321 321 322 322 322 322 322 322 323 323 323
324 325 325 323 322 323 321 320 320 319 318 315 315 314 314 313 313 311 309 309 307 306 309 307 313 311 314 316 319 323 317 320 320 320 319 319 320 322 322 322 322 322 322
323 321 321 320 319 321 320 318 318 317 317 316 314 314 313 313 313 314 313 312 308 303 304 309 309 313 314 314 316 315 315 319 320 320 319 319 319 319 319 320 320 320 321
319 318 318 318 318 319 319 317 317 316 316 316 315 312 311 310 310 311 310 312 310 307 304 310 310 311 312 313 315 313 312 319 317 317 319 318 317 317 317 317 318 318 319
317 317 317 317 316 315 314 313 314 314 312 311 311 311 310 310 309 309 312 312 312 312 307 308 309 310 308 309 309 310 312 311 311 315 317 316 315 315 314 315 315 315 316
316 314 314 313 314 313 310 309 308 307 307 307 309 309 309 312 311 310 312 311 310 309 307 304 307 305 306 308 309 309 310 311 311 313 314 313 313 312 312 312 312 312 312
313 314 314 308 306 305 304 304 304 304 303 304 305 306 308 310 308 310 310 308 307 308 306 304 302 305 305 307 308 308 309 309 309 312 311 310 310 311 311 312 311 311 309
312 311 305 302 300 299 299 299 300 300 300 301 303 305 308 310 306 305 305 304 304 302 301 302 303 304 306 307 306 302 301 303 303 305 307 308 310 312 312 312 312 312 311
311 309 302 299 297 297 297 296 295 296 296 299 302 306 309 309 307 305 303 301 298 298 300 301 301 303 302 300 299 301 299 300 301 303 303 307 306 307 308 310 312 313 310
307 305 301 297 294 295 295 296 297 293 296 299 302 304 306 303 301 300 301 301 302 300 301 301 299 297 296 299 300 299 298 297 295 304 302 302 306 306 308 308 309 308 308
305 303 298 294 291 291 294 294 297 294 298 301 302 303 305 301 296 296 297 299 302 305 303 298 292 294 296 297 299 297 297 296 296 300 300 298 305 305 308 310 308 307 306
305 302 300 296 291 292 293 293 295 294 295 295 297 298 297 295 293 294 294 296 298 299 299 299 298 295 295 296 297 296 296 296 296 296 296 293 303 305 308 308 308 307 306
302 302 301 296 290 288 292 292 291 291 292 293 296 297 296 295 294 293 293 293 294 296 299 298 298 297 295 295 296 293 291 289 288 289 292 294 299 303 305 306 308 309 306
300 300 298 296 293 287 292 292 291 289 289 289 293 296 298 296 293 292 292 291 291 293 292 292 293 294 294 293 295 292 290 287 286 286 296 290 294 298 299 305 304 307 306
Wind_Speed
5 5 5 6 6 4 3 1 4 4 1 3 4 4 4 4 2 0 2 10 7 10 10 9 15 23 11 9 10 8 10 10 11 10 11 13 15 15 16 17 16 15 14
5 5 5 5 4 2 5 4 5 7 4 4 4 4 4 3 2 2 3 1 5 7 7 14 17 17 19 12 11 10 10 10 10 10 11 10 12 14 15 16 15 15 14
5 5 5 5 4 4 7 6 6 5 4 4 5 5 5 5 5 7 4 4 4 7 5 5 5 22 19 15 12 11 11 11 10 9 10 10 11 13 14 15 16 15 15
10 7 6 5 4 4 4 4 4 5 4 4 3 2 2 3 5 4 3 3 7 1 2 8 21 27 20 16 14 15 11 10 9 9 9 9 11 12 13 14 14 14 14
7 8 7 4 4 4 4 3 3 3 3 2 1 1 2 3 5 3 5 5 6 3 4 12 7 34 31 15 14 16 13 6 9 10 9 9 10 10 12 14 13 14 14
8 7 7 6 4 3 4 4 4 4 2 2 3 4 4 4 3 4 6 6 6 10 10 4 10 13 12 12 12 12 9 8 11 11 9 9 9 10 10 11 12 13 13
7 9 4 5 3 4 3 4 3 4 3 3 3 4 3 5 6 4 5 7 5 6 6 3 0 1 1 6 4 6 8 10 10 12 5 8 9 10 10 11 12 12 13
8 6 6 5 5 4 5 2 2 2 1 1 2 1 4 5 3 4 3 4 6 5 6 8 6 4 2 2 2 4 0 1 5 5 7 6 8 10 11 12 13 13 14
9 7 7 5 6 5 3 3 3 4 2 1 2 1 3 2 4 2 6 3 9 5 5 5 7 7 5 4 5 5 2 5 5 3 3 5 8 12 13 14 14 14 15
8 9 8 8 6 4 5 3 3 3 3 2 2 3 2 1 1 6 3 4 4 7 7 7 6 7 7 5 9 5 7 6 2 2 5 8 10 14 16 17 17 18 19
5 5 6 7 7 5 6 6 3 5 3 3 2 1 2 2 0 1 6 7 7 2 4 4 6 6 7 6 5 3 4 2 5 7 10 14 15 14 16 18 19 20 22
4 5 6 6 5 5 5 7 5 5 3 3 2 2 2 1 2 2 3 6 8 6 3 4 5 3 4 4 8 6 7 8 6 9 10 11 13 16 18 20 21 22 24
3 5 5 5 4 6 6 6 4 4 2 2 2 1 1 1 2 2 1 7 4 7 3 3 3 4 6 4 5 14 14 11 14 15 12 14 16 18 20 22 23 23 24
4 4 6 6 6 6 5 4 2 1 3 2 1 2 2 3 3 2 1 3 6 4 7 7 5 3 4 7 15 20 12 16 18 16 17 19 19 18 18 19 21 21 22
5 5 6 6 6 6 7 6 5 3 3 2 3 4 2 3 3 4 2 2 1 6 9 7 7 7 7 9 11 12 9 15 20 19 19 20 18 19 19 19 19 20 20
6 7 7 6 6 6 7 6 4 4 5 4 3 5 3 3 4 4 3 2 2 4 7 7 7 11 11 10 12 12 12 17 16 20 20 18 18 18 19 21 19 19 20
7 6 6 7 7 7 6 5 7 7 7 6 6 5 5 5 3 4 3 2 3 3 6 10 8 10 14 14 13 9 10 10 11 17 21 20 19 17 20 16 16 16 18
6 7 7 6 8 11 13 11 9 8 8 8 7 9 7 6 6 5 3 4 3 4 5 11 11 10 12 13 13 14 11 10 12 17 20 23 18 20 19 20 20 20 17
7 7 9 13 12 12 11 10 9 9 9 7 7 7 7 5 5 5 4 4 5 5 6 6 11 8 9 9 12 12 12 12 10 21 21 21 21 20 21 22 21 16 16
8 13 13 13 12 11 11 10 10 9 8 7 7 6 5 4 5 6 6 6 6 7 7 7 8 9 9 10 9 12 13 10 12 12 17 16 19 19 20 17 20 22 16
12 13 12 11 11 11 9 9 7 7 6 7 7 7 4 7 11 9 5 7 7 6 7 7 8 8 9 11 11 9 11 13 11 11 9 7 12 11 10 13 17 18 16
10 12 12 11 10 8 13 16 11 5 6 6 5 6 5 9 9 14 16 17 12 8 9 6 6 9 10 11 10 10 11 11 10 3 9 11 10 10 10 9 14 16 17
9 12 10 9 9 6 16 17 18 5 6 7 8 7 6 7 11 9 12 15 13 5 5 4 4 7 12 12 14 14 13 12 12 12 11 16 10 10 9 8 14 16 14
10 8 8 9 7 7 15 16 16 8 7 7 7 5 5 6 7 8 8 8 8 8 6 7 4 6 7 11 10 13 15 13 12 12 10 11 10 10 10 8 15 15 10
7 8 7 7 8 7 12 14 10 7 8 9 8 4 3 5 10 11 8 7 8 7 7 10 13 11 10 12 11 11 10 11 12 14 9 7 7 7 9 10 7 10 9
6 5 6 7 12 5 9 10 8 4 6 6 7 6 7 8 11 10 8 9 9 9 9 10 9 6 7 13 16 10 9 11 10 9 5 10 9 6 7 3 5 7 5
Wind_Direction
197 179 170 179 201 191 204 146 199 190 324 73 71 94 120 128 112 102 348 46 31 30 344 9 5 327 286 272 267 267 266 272 272 270 268 265 264 258 254 254 253 254 255
193 194 175 171 212 178 145 97 71 88 86 78 54 42 43 53 50 124 154 268 321 76 69 9 351 280 284 263 276 267 279 276 273 277 276 276 270 265 262 260 259 259 259
185 119 85 96 105 69 104 111 95 88 96 67 49 23 12 359 344 321 337 312 229 147 131 136 233 267 265 263 271 269 265 268 271 272 283 284 280 278 272 268 263 263 259
130 113 104 90 100 104 95 97 108 89 75 63 57 24 331 319 274 249 272 209 264 292 185 17 341 326 279 264 260 259 258 261 271 279 276 285 288 288 283 276 271 273 277
122 115 113 103 102 92 85 112 81 97 89 86 164 202 283 304 304 305 288 292 280 269 196 77 347 268 273 256 270 268 255 272 280 275 279 286 292 298 294 287 285 285 282
111 107 108 133 128 100 100 70 85 53 99 80 10 356 315 286 298 338 319 310 302 300 291 223 227 241 250 265 269 266 279 286 273 266 275 290 311 316 320 311 307 305 296
91 111 103 105 103 95 97 92 81 67 31 16 14 332 309 302 285 269 243 267 297 294 330 10 40 309 294 37 336 315 312 291 308 298 348 19 9 347 339 344 348 342 329
98 92 106 94 92 105 90 66 90 80 69 197 85 349 355 330 10 301 313 354 15 324 313 3 1 344 356 355 336 344 246 232 335 29 46 29 5 337 331 330 332 331 328
117 122 118 127 134 114 160 149 124 104 95 316 238 152 356 299 333 313 334 356 352 351 343 347 345 337 345 318 303 288 172 106 97 69 10 328 327 308 308 309 309 310 307
133 145 154 150 138 127 149 147 176 109 105 95 10 22 353 316 335 322 330 339 360 341 329 331 332 317 306 295 297 340 120 110 147 250 274 281 288 292 297 297 297 297 297
130 154 149 142 120 147 127 112 88 81 72 102 106 39 337 325 234 298 307 321 316 273 294 315 307 310 331 353 353 45 133 14 278 286 294 300 294 294 294 296 295 294 291
91 78 74 75 98 97 88 106 82 98 106 101 102 116 139 179 286 249 272 300 290 316 305 302 317 335 342 355 12 51 354 319 301 291 279 282 293 292 293 290 290 290 289
70 77 79 84 87 88 88 90 103 109 117 120 111 271 256 257 234 245 257 308 309 317 312 301 345 336 339 354 0 356 339 326 316 301 304 303 296 292 289 288 285 287 285
101 110 111 116 112 121 112 84 57 124 155 167 349 301 273 275 317 318 299 328 328 332 324 319 304 304 3 349 337 337 326 321 315 306 305 304 300 295 292 283 277 278 278
126 111 105 96 86 84 76 59 44 22 80 58 347 357 -0 -0 0 321 324 27 322 320 312 315 322 325 332 331 324 317 313 311 303 300 299 296 291 291 288 284 275 270 269
102 101 90 87 83 83 79 55 37 9 28 14 23 27 17 347 341 323 314 318 291 297 298 316 318 318 324 324 319 326 312 303 308 298 293 293 289 288 294 289 274 267 268
106 103 93 77 70 74 75 53 37 41 40 26 14 357 354 348 321 301 316 333 352 345 315 307 311 319 324 318 318 309 301 304 311 304 305 303 300 295 295 293 286 279 277
85 95 87 79 55 52 59 55 47 30 27 14 10 357 337 323 325 313 10 3 341 325 321 311 316 315 300 308 312 313 317 311 312 305 313 305 313 304 299 300 286 283 278
91 72 62 70 59 48 48 42 37 25 13 358 345 340 324 342 7 354 358 10 345 344 321 301 299 301 305 310 320 319 321 322 317 315 311 311 302 297 294 292 293 293 281
68 72 72 69 62 53 39 27 20 8 350 338 324 314 308 22 38 19 12 11 340 320 306 291 292 304 312 330 328 328 320 319 315 309 307 300 290 292 290 297 296 297 291
68 80 78 71 62 52 30 13 2 342 326 322 321 315 25 73 50 31 9 340 323 304 296 300 305 310 326 330 322 321 309 313 314 295 293 310 311 303 296 295 290 290 283
78 81 78 72 63 49 22 15 7 333 325 325 349 354 3 51 28 12 356 327 311 297 298 320 323 322 318 318 315 318 313 316 318 288 317 300 289 290 288 281 281 281 278
80 89 91 82 67 41 27 13 1 339 349 15 7 358 11 41 19 0 334 325 322 4 51 325 308 319 324 328 323 320 315 307 296 303 315 299 289 282 287 295 283 282 268
87 88 90 92 78 46 32 13 3 5 11 1 7 8 34 20 6 348 332 332 322 325 351 329 297 287 320 322 329 321 311 308 303 298 310 285 291 285 295 297 292 288 263
94 94 97 101 80 44 30 21 13 7 3 352 344 23 16 353 348 342 326 318 309 300 313 308 303 294 303 313 322 322 322 322 313 310 307 251 271 325 302 293 287 302 283
100 117 105 91 99 72 29 30 22 351 360 352 338 338 318 343 328 325 335 317 317 326 321 319 315 304 313 333 337 331 323 315 313 306 21 349 313 319 321 265 303 308 313